Flag for Poland Weather past 2 weeks in Elbląg, Poland

Now
70 °F

Passing clouds.


Feels Like: 70 °F
Forecast: 57 / 78 °F
Wind: 3 mph from East

Location: Hel

Current Time: Aug 2, 2015 at 12:55:23 PM

Latest Report: Aug 2, 2015 at 12:00 PM


Visibility: 16 mi

Pressure: 30.17 "Hg

Humidity: 65%

Dew point: 57 °F

Location of ElblągLocation

Historic Weather in Elbląg — Graph

°F

Elbląg temperature yesterday

Maximum temperature yesterday: 65 °F (at 2:00 PM)
Minimum temperature yesterday: 55 °F (at 10:00 PM)
Average temperature yesterday: 59 °F

Past Weeks' High & Low Weather Summary

 TemperatureHumidityPressure
High73 °F (Jul 21, 2:00 PM)97% (Jul 23, 7:00 AM)30.17 "Hg (Jul 23, 7:00 AM)
Low54 °F (Jul 27, 5:00 AM)54% (Jul 24, 11:00 AM)29.54 "Hg (Jul 28, 7:00 AM)
Average62 °F79%29.83 "Hg
* Reported Jul 18 11:00 AM — Aug 2 11:00 AM, Elbląg, Weather by CustomWeather, © 2015

Note: Actual official high and low records may vary slightly from our data, if they occured in-between our weather recording intervals... More about our weather records

Advertising

Elbląg weather history for previous 24 hours

 ConditionsComfort  
Time TempWeatherWind HumidityBarometerVisibility
11:00 AM
Sun, Aug 2
67 °FPassing clouds.3 mph65%30.17 "Hg12 mi
10:00 AM64 °FPassing clouds.3 mph64%30.17 "Hg12 mi
9:00 AM62 °FPassing clouds.3 mph67%30.16 "Hg12 mi
8:00 AM59 °FScattered clouds.3 mph75%30.16 "Hg12 mi
7:00 AM57 °FScattered clouds.2 mph85%30.16 "Hg12 mi
6:00 AM54 °FScattered clouds.3 mph92%30.16 "Hg12 mi
4:00 AM55 °FPassing clouds.3 mph87%30.14 "Hg12 mi
3:00 AM56 °FPassing clouds.3 mph88%30.14 "Hg12 mi
2:00 AM56 °FPassing clouds.3 mph89%30.14 "Hg19 mi
12:00 AM54 °FPassing clouds.2 mph91%30.15 "Hg11 mi
10:00 PM
Sat, Aug 1
55 °FPassing clouds.3 mph85%30.14 "Hg16 mi
9:00 PM56 °FPassing clouds.2 mph80%30.14 "Hg19 mi
8:00 PM59 °FPassing clouds.2 mph74%30.13 "Hg19 mi
7:00 PM61 °FPassing clouds.2 mph67%30.13 "Hg19 mi
6:00 PM62 °FPassing clouds.3 mph61%30.13 "Hg19 mi
5:00 PM64 °FPassing clouds.3 mph59%30.13 "Hg19 mi
4:00 PM64 °FScattered clouds.3 mph60%30.13 "Hg19 mi
3:00 PM63 °FPartly sunny.3 mph59%30.14 "Hg19 mi
2:00 PM65 °FPartly sunny.2 mph56%30.14 "Hg19 mi
1:00 PM64 °FPartly sunny.2 mph54%30.14 "Hg19 mi
12:00 PM64 °FPartly sunny.3 mph56%30.13 "Hg19 mi
Weather by CustomWeather, © 2015

See weather overviewHow to use our weather pages